| time (UTC) | temp F | wind direction | speed MPH | gust MPH | rain 1hr in | rain 24hr in | rain mn in | humidity % | barometer mb |
| 20260901040408 | 58 | 45 | 4.0 | 9.0 | 0.00 | 0.00 | 0.00 | 78 | 1017.7 |
| 20260901040208 | 58 | 46 | 4.0 | 9.0 | 0.00 | 0.00 | 0.00 | 78 | 1017.7 |
| 20260901040008 | 58 | 46 | 4.0 | 9.0 | 0.00 | 0.00 | 0.00 | 78 | 1017.7 |
| 20260901035607 | 58 | 46 | 3.0 | 8.0 | 0.00 | 0.00 | 0.00 | 78 | 1017.6 |
| 20260901035407 | 58 | 46 | 3.0 | 8.0 | 0.00 | 0.00 | 0.00 | 78 | 1017.7 |
| 20260901035207 | 58 | 46 | 3.0 | 8.0 | 0.00 | 0.00 | 0.00 | 78 | 1017.7 |
| 20260901035008 | 58 | 45 | 3.0 | 8.0 | 0.00 | 0.00 | 0.00 | 78 | 1017.7 |
| 20260901034809 | 57 | 46 | 3.0 | 6.0 | 0.00 | 0.00 | 0.00 | 78 | 1017.6 |
| 20260901034607 | 57 | 46 | 4.0 | 6.0 | 0.00 | 0.00 | 0.00 | 78 | 1017.6 |
| 20260901034408 | 57 | 45 | 4.0 | 6.0 | 0.00 | 0.00 | 0.00 | 78 | 1017.5 |
| 20260901034207 | 58 | 46 | 4.0 | 6.0 | 0.00 | 0.00 | 0.00 | 78 | 1017.5 |
| 20260901033808 | 58 | 46 | 4.0 | 7.0 | 0.00 | 0.00 | 0.00 | 78 | 1017.6 |
| 20260901033608 | 58 | 45 | 4.0 | 7.0 | 0.00 | 0.00 | 0.00 | 78 | 1017.6 |
| 20260901033208 | 58 | 46 | 3.0 | 7.0 | 0.00 | 0.00 | 0.00 | 78 | 1017.6 |
| 20260901033008 | 57 | 45 | 3.0 | 7.0 | 0.00 | 0.00 | 0.00 | 78 | 1017.6 |
| 20260901032807 | 57 | 46 | 2.0 | 7.0 | 0.00 | 0.00 | 0.00 | 78 | 1017.5 |
| 20260901032607 | 57 | 46 | 2.0 | 6.0 | 0.00 | 0.00 | 0.00 | 78 | 1017.5 |
| 20260901032408 | 57 | 46 | 2.0 | 6.0 | 0.00 | 0.00 | 0.00 | 78 | 1017.4 |
| 20260901032008 | 57 | 45 | 2.0 | 6.0 | 0.00 | 0.00 | 0.00 | 78 | 1017.6 |
| 20260901031808 | 57 | 45 | 3.0 | 6.0 | 0.00 | 0.00 | 0.00 | 78 | 1017.6 |
| 20260901031608 | 57 | 46 | 3.0 | 5.0 | 0.00 | 0.00 | 0.00 | 77 | 1017.6 |
| 20260901031207 | 57 | 46 | 3.0 | 6.0 | 0.00 | 0.00 | 0.00 | 77 | 1017.6 |
| 20260901031007 | 57 | 46 | 4.0 | 6.0 | 0.00 | 0.00 | 0.00 | 77 | 1017.6 |
| 20260901030808 | 58 | 46 | 4.0 | 6.0 | 0.00 | 0.00 | 0.00 | 77 | 1017.5 |
| 20260901030608 | 58 | 45 | 4.0 | 7.0 | 0.00 | 0.00 | 0.00 | 77 | 1017.4 |
| 20260901030408 | 58 | 45 | 4.0 | 7.0 | 0.00 | 0.00 | 0.00 | 76 | 1017.5 |
| 20260901030208 | 58 | 46 | 4.0 | 9.0 | 0.00 | 0.00 | 0.00 | 76 | 1017.4 |
| 20260901025808 | 58 | 46 | 5.0 | 9.0 | 0.00 | 0.00 | 0.00 | 76 | 1017.5 |
| 20260901025608 | 58 | 45 | 5.0 | 9.0 | 0.00 | 0.00 | 0.00 | 76 | 1017.5 |
| 20260901025207 | 58 | 46 | 4.0 | 9.0 | 0.00 | 0.00 | 0.00 | 76 | 1017.6 |
| 20260901025007 | 58 | 46 | 5.0 | 9.0 | 0.00 | 0.00 | 0.00 | 76 | 1017.7 |
| 20260901024807 | 58 | 45 | 5.0 | 9.0 | 0.00 | 0.00 | 0.00 | 76 | 1017.7 |
| 20260901024408 | 58 | 45 | 5.0 | 8.0 | 0.00 | 0.00 | 0.00 | 76 | 1017.7 |
| 20260901024208 | 58 | 46 | 5.0 | 8.0 | 0.00 | 0.00 | 0.00 | 75 | 1017.7 |
| 20260901024008 | 58 | 46 | 5.0 | 9.0 | 0.00 | 0.00 | 0.00 | 75 | 1017.7 |
| 20260901023808 | 58 | 46 | 5.0 | 9.0 | 0.00 | 0.00 | 0.00 | 75 | 1017.8 |
| 20260901023607 | 58 | 45 | 5.0 | 10.0 | 0.00 | 0.00 | 0.00 | 75 | 1017.9 |
| 20260901023207 | 59 | 45 | 5.0 | 10.0 | 0.00 | 0.00 | 0.00 | 75 | 1017.9 |
| 20260901023007 | 59 | 46 | 5.0 | 10.0 | 0.00 | 0.00 | 0.00 | 75 | 1017.8 |
| 20260901022808 | 59 | 46 | 5.0 | 10.0 | 0.00 | 0.00 | 0.00 | 75 | 1017.9 |
| 20260901022608 | 59 | 46 | 5.0 | 9.0 | 0.00 | 0.00 | 0.00 | 75 | 1017.9 |
| 20260901022408 | 59 | 46 | 5.0 | 9.0 | 0.00 | 0.00 | 0.00 | 75 | 1017.9 |
| 20260901022208 | 59 | 46 | 5.0 | 9.0 | 0.00 | 0.00 | 0.00 | 75 | 1017.9 |
| 20260901022008 | 59 | 46 | 5.0 | 10.0 | 0.00 | 0.00 | 0.00 | 75 | 1017.8 |
| 20260901021808 | 59 | 46 | 5.0 | 10.0 | 0.00 | 0.00 | 0.00 | 75 | 1018.0 |
| 20260901021607 | 59 | 46 | 5.0 | 10.0 | 0.00 | 0.00 | 0.00 | 75 | 1018.0 |
| 20260901021407 | 59 | 46 | 5.0 | 10.0 | 0.00 | 0.00 | 0.00 | 75 | 1018.0 |
| 20260901020808 | 58 | 46 | 5.0 | 9.0 | 0.00 | 0.00 | 0.00 | 75 | 1018.0 |
| 20260901020608 | 58 | 46 | 5.0 | 11.0 | 0.00 | 0.00 | 0.00 | 75 | 1018.0 |
| 20260901020408 | 58 | 46 | 5.0 | 11.0 | 0.00 | 0.00 | 0.00 | 75 | 1018.0 |
| 20260901020208 | 58 | 45 | 5.0 | 11.0 | 0.00 | 0.00 | 0.00 | 75 | 1017.8 |
| 20260901020009 | 58 | 46 | 4.0 | 11.0 | 0.00 | 0.00 | 0.00 | 75 | 1018.0 |
| 20260901015808 | 58 | 46 | 4.0 | 11.0 | 0.00 | 0.00 | 0.00 | 75 | 1018.2 |
| 20260901015608 | 58 | 45 | 3.0 | 10.0 | 0.00 | 0.00 | 0.00 | 75 | 1018.1 |
| 20260901015408 | 58 | 46 | 3.0 | 10.0 | 0.00 | 0.00 | 0.00 | 76 | 1018.1 |
| 20260901015208 | 58 | 45 | 3.0 | 8.0 | 0.00 | 0.00 | 0.00 | 76 | 1018.1 |
| 20260901015008 | 58 | 45 | 4.0 | 8.0 | 0.00 | 0.00 | 0.00 | 76 | 1018.1 |
| 20260901014808 | 58 | 45 | 4.0 | 12.0 | 0.00 | 0.00 | 0.00 | 76 | 1018.2 |
| 20260901014607 | 58 | 45 | 4.0 | 12.0 | 0.00 | 0.00 | 0.00 | 76 | 1017.9 |
| 20260901014407 | 58 | 45 | 4.0 | 12.0 | 0.00 | 0.00 | 0.00 | 76 | 1017.9 |
| 20260901014007 | 58 | 46 | 4.0 | 12.0 | 0.00 | 0.00 | 0.00 | 76 | 1018.0 |
| 20260901013807 | 58 | 46 | 3.0 | 9.0 | 0.00 | 0.00 | 0.00 | 77 | 1018.0 |
| 20260901013607 | 58 | 46 | 3.0 | 9.0 | 0.00 | 0.00 | 0.00 | 77 | 1018.0 |
| 20260901013407 | 57 | 45 | 3.0 | 9.0 | 0.00 | 0.00 | 0.00 | 77 | 1018.1 |
| 20260901013208 | 57 | 46 | 3.0 | 9.0 | 0.00 | 0.00 | 0.00 | 78 | 1018.0 |
| 20260901013008 | 57 | 45 | 3.0 | 9.0 | 0.00 | 0.00 | 0.00 | 78 | 1018.0 |
| 20260901012608 | 57 | 45 | 4.0 | 6.0 | 0.00 | 0.00 | 0.00 | 77 | 1018.1 |
| 20260901012407 | 57 | 45 | 4.0 | 6.0 | 0.00 | 0.00 | 0.00 | 76 | 1018.0 |
| 20260901012208 | 58 | 46 | 4.0 | 6.0 | 0.00 | 0.00 | 0.00 | 76 | 1018.0 |
| 20260901012008 | 58 | 45 | 4.0 | 8.0 | 0.00 | 0.00 | 0.00 | 76 | 1018.0 |
| 20260901011808 | 58 | 46 | 5.0 | 8.0 | 0.00 | 0.00 | 0.00 | 76 | 1018.0 |
| 20260901011608 | 58 | 45 | 5.0 | 8.0 | 0.00 | 0.00 | 0.00 | 75 | 1018.0 |
| 20260901011408 | 58 | 46 | 5.0 | 9.0 | 0.00 | 0.00 | 0.00 | 75 | 1018.1 |
| 20260901011208 | 58 | 46 | 5.0 | 11.0 | 0.00 | 0.00 | 0.00 | 75 | 1018.1 |
| 20260901011008 | 58 | 46 | 5.0 | 11.0 | 0.00 | 0.00 | 0.00 | 75 | 1018.0 |
| 20260901010808 | 58 | 46 | 5.0 | 11.0 | 0.00 | 0.00 | 0.00 | 75 | 1018.1 |
| 20260901010608 | 58 | 45 | 5.0 | 11.0 | 0.00 | 0.00 | 0.00 | 75 | 1018.1 |
| 20260901010408 | 58 | 46 | 5.0 | 11.0 | 0.00 | 0.00 | 0.00 | 75 | 1018.1 |
| 20260901010208 | 59 | 46 | 5.0 | 9.0 | 0.00 | 0.00 | 0.00 | 75 | 1018.0 |
| 20260901005808 | 59 | 46 | 5.0 | 9.0 | 0.00 | 0.00 | 0.00 | 75 | 1018.1 |
| 20260901005607 | 59 | 46 | 5.0 | 9.0 | 0.00 | 0.00 | 0.00 | 75 | 1018.1 |
| 20260901005408 | 58 | 46 | 5.0 | 9.0 | 0.00 | 0.00 | 0.00 | 75 | 1018.1 |
| 20260901005207 | 58 | 46 | 5.0 | 9.0 | 0.00 | 0.00 | 0.00 | 75 | 1018.1 |
| 20260901005007 | 58 | 46 | 4.0 | 9.0 | 0.00 | 0.00 | 0.00 | 75 | 1018.1 |
| 20260901004807 | 58 | 45 | 4.0 | 9.0 | 0.00 | 0.00 | 0.00 | 75 | 1018.0 |
| 20260901004608 | 58 | 46 | 4.0 | 10.0 | 0.00 | 0.00 | 0.00 | 75 | 1018.0 |
| 20260901004407 | 58 | 46 | 4.0 | 10.0 | 0.00 | 0.00 | 0.00 | 75 | 1018.1 |
| 20260901004207 | 58 | 45 | 4.0 | 10.0 | 0.00 | 0.00 | 0.00 | 75 | 1018.3 |
| 20260901004007 | 58 | 46 | 4.0 | 10.0 | 0.00 | 0.00 | 0.00 | 76 | 1018.2 |
| 20260901003807 | 58 | 45 | 4.0 | 10.0 | 0.00 | 0.00 | 0.00 | 76 | 1018.0 |
| 20260901003607 | 58 | 45 | 4.0 | 10.0 | 0.00 | 0.00 | 0.00 | 76 | 1018.1 |
| 20260901003407 | 58 | 45 | 5.0 | 10.0 | 0.00 | 0.00 | 0.00 | 76 | 1018.1 |
| 20260901003207 | 58 | 45 | 5.0 | 10.0 | 0.00 | 0.00 | 0.00 | 76 | 1018.0 |
| 20260901003008 | 58 | 45 | 5.0 | 10.0 | 0.00 | 0.00 | 0.00 | 76 | 1018.0 |
| 20260901002808 | 58 | 45 | 5.0 | 10.0 | 0.00 | 0.00 | 0.00 | 76 | 1018.1 |
| 20260901002608 | 58 | 46 | 5.0 | 9.0 | 0.00 | 0.00 | 0.00 | 77 | 1018.1 |
| 20260901002408 | 58 | 45 | 5.0 | 9.0 | 0.00 | 0.00 | 0.00 | 77 | 1018.2 |
| 20260901002208 | 58 | 46 | 5.0 | 9.0 | 0.00 | 0.00 | 0.00 | 77 | 1018.0 |
| 20260901002008 | 58 | 46 | 5.0 | 9.0 | 0.00 | 0.00 | 0.00 | 77 | 1018.1 |
| 20260901001608 | 58 | 46 | 5.0 | 9.0 | 0.00 | 0.00 | 0.00 | 77 | 1018.1 |
| 20260901001408 | 58 | 46 | 5.0 | 9.0 | 0.00 | 0.00 | 0.00 | 77 | 1018.1 |
| 20260901001208 | 58 | 45 | 5.0 | 9.0 | 0.00 | 0.00 | 0.00 | 77 | 1018.1 |
| 20260901000407 | 58 | 46 | 4.0 | 9.0 | 0.00 | 0.00 | 0.00 | 77 | 1018.2 |
| 20260901000207 | 58 | 46 | 4.0 | 8.0 | 0.00 | 0.00 | 0.00 | 77 | 1018.2 |
| 20260901000007 | 58 | 46 | 4.0 | 8.0 | 0.00 | 0.00 | 0.00 | 77 | 1018.3 |
| 20260831235808 | 58 | 46 | 4.0 | 8.0 | 0.00 | 0.00 | 0.00 | 77 | 1018.3 |
| 20260831235608 | 58 | 46 | 4.0 | 8.0 | 0.00 | 0.00 | 0.00 | 77 | 1018.3 |
| 20260831235408 | 58 | 45 | 4.0 | 8.0 | 0.00 | 0.00 | 0.00 | 77 | 1018.3 |
| 20260831235208 | 58 | 46 | 4.0 | 8.0 | 0.00 | 0.00 | 0.00 | 77 | 1018.3 |
| 20260831235008 | 57 | 46 | 4.0 | 9.0 | 0.00 | 0.00 | 0.00 | 77 | 1018.3 |
| 20260831234808 | 57 | 45 | 5.0 | 10.0 | 0.00 | 0.00 | 0.00 | 77 | 1018.4 |
| 20260831234408 | 58 | 45 | 5.0 | 10.0 | 0.00 | 0.00 | 0.00 | 77 | 1018.4 |
| 20260831234207 | 58 | 45 | 5.0 | 11.0 | 0.00 | 0.00 | 0.00 | 77 | 1018.5 |
| 20260831234008 | 58 | 46 | 5.0 | 11.0 | 0.00 | 0.00 | 0.00 | 76 | 1018.4 |
| 20260831233808 | 58 | 45 | 5.0 | 11.0 | 0.00 | 0.00 | 0.00 | 76 | 1018.4 |
| 20260831233608 | 58 | 45 | 6.0 | 11.0 | 0.00 | 0.00 | 0.00 | 76 | 1018.4 |
| 20260831233208 | 58 | 46 | 5.0 | 12.0 | 0.00 | 0.00 | 0.00 | 76 | 1018.4 |
| 20260831233008 | 58 | 46 | 5.0 | 12.0 | 0.00 | 0.00 | 0.00 | 76 | 1018.4 |
| 20260831232807 | 58 | 45 | 5.0 | 12.0 | 0.00 | 0.00 | 0.00 | 76 | 1018.4 |
| 20260831232608 | 58 | 45 | 5.0 | 12.0 | 0.00 | 0.00 | 0.00 | 76 | 1018.5 |
| 20260831232408 | 58 | 45 | 5.0 | 12.0 | 0.00 | 0.00 | 0.00 | 76 | 1018.5 |
| 20260831232208 | 58 | 45 | 5.0 | 11.0 | 0.00 | 0.00 | 0.00 | 76 | 1018.5 |
| 20260831232007 | 58 | 46 | 5.0 | 11.0 | 0.00 | 0.00 | 0.00 | 76 | 1018.5 |
| 20260831231808 | 58 | 46 | 5.0 | 10.0 | 0.00 | 0.00 | 0.00 | 76 | 1018.5 |
| 20260831231608 | 58 | 45 | 5.0 | 10.0 | 0.00 | 0.00 | 0.00 | 76 | 1018.5 |
| 20260831231409 | 58 | 45 | 5.0 | 10.0 | 0.00 | 0.00 | 0.00 | 76 | 1018.5 |
| 20260831231208 | 58 | 46 | 5.0 | 10.0 | 0.00 | 0.00 | 0.00 | 76 | 1018.5 |
| 20260831230608 | 58 | 46 | 4.0 | 10.0 | 0.00 | 0.00 | 0.00 | 76 | 1018.6 |
| 20260831230408 | 58 | 45 | 5.0 | 10.0 | 0.00 | 0.00 | 0.00 | 76 | 1018.6 |
| 20260831230208 | 58 | 46 | 5.0 | 10.0 | 0.00 | 0.00 | 0.00 | 76 | 1018.5 |
| 20260831230008 | 58 | 46 | 5.0 | 10.0 | 0.00 | 0.00 | 0.00 | 76 | 1018.6 |
| 20260831225807 | 58 | 46 | 5.0 | 11.0 | 0.00 | 0.00 | 0.00 | 76 | 1018.6 |
| 20260831225608 | 57 | 45 | 5.0 | 11.0 | 0.00 | 0.00 | 0.00 | 76 | 1018.5 |
| 20260831225408 | 58 | 46 | 5.0 | 11.0 | 0.00 | 0.00 | 0.00 | 76 | 1018.5 |
| 20260831225208 | 58 | 46 | 5.0 | 11.0 | 0.00 | 0.00 | 0.00 | 76 | 1018.6 |
| 20260831225008 | 58 | 45 | 5.0 | 11.0 | 0.00 | 0.00 | 0.00 | 76 | 1018.6 |
| 20260831224808 | 58 | 46 | 4.0 | 11.0 | 0.00 | 0.00 | 0.00 | 76 | 1018.6 |
| 20260831224608 | 58 | 46 | 4.0 | 11.0 | 0.00 | 0.00 | 0.00 | 76 | 1018.7 |
| 20260831224408 | 58 | 45 | 4.0 | 11.0 | 0.00 | 0.00 | 0.00 | 76 | 1018.7 |
| 20260831224008 | 58 | 45 | 4.0 | 9.0 | 0.00 | 0.00 | 0.00 | 76 | 1018.7 |
| 20260831223808 | 58 | 46 | 4.0 | 9.0 | 0.00 | 0.00 | 0.00 | 76 | 1018.6 |
| 20260831223608 | 58 | 46 | 4.0 | 9.0 | 0.00 | 0.00 | 0.00 | 76 | 1018.7 |
| 20260831223408 | 58 | 45 | 4.0 | 9.0 | 0.00 | 0.00 | 0.00 | 76 | 1018.6 |
| 20260831223008 | 58 | 46 | 4.0 | 7.0 | 0.00 | 0.00 | 0.00 | 76 | 1018.7 |
| 20260831222808 | 58 | 46 | 4.0 | 7.0 | 0.00 | 0.00 | 0.00 | 76 | 1018.6 |
| 20260831222608 | 58 | 46 | 4.0 | 8.0 | 0.00 | 0.00 | 0.00 | 76 | 1018.7 |
| 20260831222208 | 58 | 46 | 4.0 | 8.0 | 0.00 | 0.00 | 0.00 | 75 | 1018.6 |
| 20260831222008 | 58 | 46 | 4.0 | 8.0 | 0.00 | 0.00 | 0.00 | 75 | 1018.7 |
| 20260831221808 | 58 | 46 | 4.0 | 8.0 | 0.00 | 0.00 | 0.00 | 75 | 1018.6 |
| 20260831221608 | 58 | 45 | 3.0 | 8.0 | 0.00 | 0.00 | 0.00 | 75 | 1018.6 |
| 20260831221408 | 58 | 45 | 3.0 | 8.0 | 0.00 | 0.00 | 0.00 | 75 | 1018.6 |
| 20260831221208 | 58 | 45 | 3.0 | 8.0 | 0.00 | 0.00 | 0.00 | 75 | 1018.6 |
| 20260831221008 | 57 | 46 | 3.0 | 8.0 | 0.00 | 0.00 | 0.00 | 75 | 1018.6 |
| 20260831220807 | 57 | 46 | 3.0 | 7.0 | 0.00 | 0.00 | 0.00 | 75 | 1018.6 |
| 20260831220608 | 57 | 46 | 3.0 | 7.0 | 0.00 | 0.00 | 0.00 | 75 | 1018.6 |
| 20260831220408 | 57 | 46 | 3.0 | 7.0 | 0.00 | 0.00 | 0.00 | 75 | 1018.7 |
| 20260831220207 | 57 | 45 | 3.0 | 7.0 | 0.00 | 0.00 | 0.00 | 75 | 1018.6 |
| 20260831220008 | 57 | 45 | 3.0 | 6.0 | 0.00 | 0.00 | 0.00 | 75 | 1018.7 |
| 20260831215608 | 57 | 46 | 3.0 | 6.0 | 0.00 | 0.00 | 0.00 | 75 | 1018.6 |
| 20260831215408 | 57 | 46 | 3.0 | 6.0 | 0.00 | 0.00 | 0.00 | 75 | 1018.5 |
| 20260831215007 | 57 | 45 | 3.0 | 6.0 | 0.00 | 0.00 | 0.00 | 75 | 1018.6 |
| 20260831214808 | 57 | 46 | 3.0 | 7.0 | 0.00 | 0.00 | 0.00 | 76 | 1018.5 |
| 20260831214608 | 57 | 46 | 3.0 | 7.0 | 0.00 | 0.00 | 0.00 | 76 | 1018.5 |
| 20260831214408 | 57 | 45 | 3.0 | 7.0 | 0.00 | 0.00 | 0.00 | 76 | 1018.5 |
| 20260831214208 | 57 | 46 | 3.0 | 7.0 | 0.00 | 0.00 | 0.00 | 76 | 1018.5 |
| 20260831214007 | 57 | 46 | 3.0 | 7.0 | 0.00 | 0.00 | 0.00 | 75 | 1018.4 |
| 20260831213608 | 57 | 46 | 3.0 | 6.0 | 0.00 | 0.00 | 0.00 | 75 | 1018.4 |
| 20260831213408 | 57 | 46 | 3.0 | 6.0 | 0.00 | 0.00 | 0.00 | 75 | 1018.4 |
| 20260831213208 | 57 | 45 | 3.0 | 6.0 | 0.00 | 0.00 | 0.00 | 75 | 1018.4 |
| 20260831213008 | 57 | 45 | 3.0 | 6.0 | 0.00 | 0.00 | 0.00 | 75 | 1018.5 |
| 20260831212808 | 57 | 46 | 3.0 | 6.0 | 0.00 | 0.00 | 0.00 | 75 | 1018.4 |
| 20260831212608 | 57 | 46 | 3.0 | 6.0 | 0.00 | 0.00 | 0.00 | 75 | 1018.3 |
| 20260831212208 | 57 | 45 | 2.0 | 6.0 | 0.00 | 0.00 | 0.00 | 75 | 1018.4 |
| 20260831212008 | 57 | 45 | 2.0 | 6.0 | 0.00 | 0.00 | 0.00 | 75 | 1018.5 |
| 20260831211808 | 57 | 46 | 2.0 | 6.0 | 0.00 | 0.00 | 0.00 | 75 | 1018.4 |
| 20260831211608 | 57 | 46 | 2.0 | 6.0 | 0.00 | 0.00 | 0.00 | 75 | 1018.4 |
| 20260831211408 | 57 | 45 | 2.0 | 5.0 | 0.00 | 0.00 | 0.00 | 75 | 1018.4 |
| 20260831211208 | 57 | 45 | 2.0 | 5.0 | 0.00 | 0.00 | 0.00 | 75 | 1018.4 |
| 20260831210808 | 58 | 45 | 2.0 | 4.0 | 0.00 | 0.00 | 0.00 | 75 | 1018.5 |
| 20260831210408 | 58 | 45 | 3.0 | 5.0 | 0.00 | 0.00 | 0.00 | 74 | 1018.6 |
| 20260831210208 | 58 | 46 | 3.0 | 6.0 | 0.00 | 0.00 | 0.00 | 74 | 1018.6 |
| 20260831210008 | 58 | 46 | 3.0 | 6.0 | 0.00 | 0.00 | 0.00 | 74 | 1018.6 |
| 20260831205808 | 58 | 45 | 3.0 | 6.0 | 0.00 | 0.00 | 0.00 | 74 | 1018.6 |
| 20260831205408 | 58 | 46 | 3.0 | 6.0 | 0.00 | 0.00 | 0.00 | 74 | 1018.4 |
| 20260831205208 | 58 | 46 | 3.0 | 6.0 | 0.00 | 0.00 | 0.00 | 74 | 1018.4 |
| 20260831205007 | 58 | 46 | 3.0 | 6.0 | 0.00 | 0.00 | 0.00 | 74 | 1018.3 |
| 20260831204807 | 58 | 46 | 3.0 | 6.0 | 0.00 | 0.00 | 0.00 | 74 | 1018.3 |
| 20260831204208 | 58 | 45 | 3.0 | 6.0 | 0.00 | 0.00 | 0.00 | 73 | 1018.5 |
| 20260831204008 | 58 | 45 | 3.0 | 6.0 | 0.00 | 0.00 | 0.00 | 73 | 1018.4 |
| 20260831203808 | 59 | 46 | 3.0 | 6.0 | 0.00 | 0.00 | 0.00 | 73 | 1018.4 |
| 20260831203608 | 59 | 46 | 3.0 | 7.0 | 0.00 | 0.00 | 0.00 | 73 | 1018.4 |
| 20260831203408 | 59 | 46 | 3.0 | 7.0 | 0.00 | 0.00 | 0.00 | 73 | 1018.4 |
| 20260831203208 | 59 | 46 | 3.0 | 7.0 | 0.00 | 0.00 | 0.00 | 73 | 1018.3 |
| 20260831203008 | 59 | 46 | 3.0 | 7.0 | 0.00 | 0.00 | 0.00 | 73 | 1018.3 |
| 20260831202808 | 59 | 45 | 3.0 | 7.0 | 0.00 | 0.00 | 0.00 | 73 | 1018.4 |
| 20260831202608 | 59 | 46 | 3.0 | 6.0 | 0.00 | 0.00 | 0.00 | 73 | 1018.5 |
| 20260831202208 | 59 | 46 | 3.0 | 6.0 | 0.00 | 0.00 | 0.00 | 73 | 1018.3 |
| 20260831201808 | 59 | 46 | 3.0 | 7.0 | 0.00 | 0.00 | 0.00 | 73 | 1018.3 |
| 20260831201608 | 59 | 45 | 3.0 | 7.0 | 0.00 | 0.00 | 0.00 | 73 | 1018.3 |
| 20260831201208 | 59 | 46 | 2.0 | 7.0 | 0.00 | 0.00 | 0.00 | 73 | 1018.3 |
| 20260831201008 | 59 | 45 | 2.0 | 7.0 | 0.00 | 0.00 | 0.00 | 73 | 1018.3 |
| 20260831200807 | 59 | 45 | 2.0 | 5.0 | 0.00 | 0.00 | 0.00 | 73 | 1018.3 |
| 20260831200607 | 59 | 45 | 2.0 | 5.0 | 0.00 | 0.00 | 0.00 | 74 | 1018.2 |
| 20260831200407 | 59 | 45 | 2.0 | 5.0 | 0.00 | 0.00 | 0.00 | 74 | 1018.3 |
| 20260831200208 | 59 | 45 | 2.0 | 5.0 | 0.00 | 0.00 | 0.00 | 73 | 1018.3 |
| 20260831200008 | 59 | 45 | 2.0 | 5.0 | 0.00 | 0.00 | 0.00 | 73 | 1018.3 |
| 20260831195808 | 59 | 45 | 2.0 | 4.0 | 0.00 | 0.00 | 0.00 | 74 | 1018.3 |
| 20260831195608 | 59 | 45 | 2.0 | 4.0 | 0.00 | 0.00 | 0.00 | 74 | 1018.2 |
| 20260831195408 | 59 | 45 | 2.0 | 4.0 | 0.00 | 0.00 | 0.00 | 74 | 1018.3 |
| 20260831195208 | 59 | 45 | 2.0 | 6.0 | 0.00 | 0.00 | 0.00 | 73 | 1018.3 |
| 20260831194607 | 59 | 45 | 2.0 | 6.0 | 0.00 | 0.00 | 0.00 | 73 | 1018.2 |
| 20260831194407 | 59 | 45 | 2.0 | 6.0 | 0.00 | 0.00 | 0.00 | 73 | 1018.1 |
| 20260831194207 | 59 | 45 | 2.0 | 5.0 | 0.00 | 0.00 | 0.00 | 73 | 1018.1 |
| 20260831194008 | 59 | 45 | 2.0 | 5.0 | 0.00 | 0.00 | 0.00 | 73 | 1018.1 |
| 20260831193808 | 59 | 45 | 2.0 | 5.0 | 0.00 | 0.00 | 0.00 | 73 | 1018.1 |
| 20260831193608 | 59 | 45 | 2.0 | 4.0 | 0.00 | 0.00 | 0.00 | 73 | 1018.1 |
| 20260831193408 | 59 | 45 | 2.0 | 4.0 | 0.00 | 0.00 | 0.00 | 73 | 1018.1 |
| 20260831193208 | 59 | 45 | 2.0 | 7.0 | 0.00 | 0.00 | 0.00 | 73 | 1018.2 |
| 20260831193007 | 59 | 45 | 2.0 | 7.0 | 0.00 | 0.00 | 0.00 | 73 | 1018.1 |
| 20260831192807 | 59 | 46 | 2.0 | 7.0 | 0.00 | 0.00 | 0.00 | 73 | 1018.1 |
| 20260831192607 | 59 | 45 | 2.0 | 7.0 | 0.00 | 0.00 | 0.00 | 73 | 1018.2 |
| 20260831192408 | 59 | 45 | 3.0 | 7.0 | 0.00 | 0.00 | 0.00 | 73 | 1018.1 |
| 20260831192208 | 59 | 45 | 3.0 | 5.0 | 0.00 | 0.00 | 0.00 | 73 | 1018.2 |
| 20260831192008 | 59 | 45 | 3.0 | 8.0 | 0.00 | 0.00 | 0.00 | 73 | 1018.1 |
| 20260831191808 | 59 | 45 | 3.0 | 8.0 | 0.00 | 0.00 | 0.00 | 73 | 1018.2 |
| 20260831191607 | 59 | 45 | 3.0 | 8.0 | 0.00 | 0.00 | 0.00 | 73 | 1018.2 |
| 20260831191407 | 59 | 45 | 3.0 | 8.0 | 0.00 | 0.00 | 0.00 | 73 | 1018.2 |
| 20260831191208 | 59 | 45 | 3.0 | 8.0 | 0.00 | 0.00 | 0.00 | 73 | 1018.1 |
| 20260831191008 | 59 | 46 | 3.0 | 5.0 | 0.00 | 0.00 | 0.00 | 73 | 1018.1 |
| 20260831190808 | 59 | 45 | 4.0 | 5.0 | 0.00 | 0.00 | 0.00 | 73 | 1018.1 |
| 20260831190608 | 59 | 46 | 4.0 | 7.0 | 0.00 | 0.00 | 0.00 | 73 | 1018.1 |
| 20260831190407 | 60 | 45 | 4.0 | 7.0 | 0.00 | 0.00 | 0.00 | 73 | 1018.2 |
| 20260831190207 | 60 | 46 | 4.0 | 7.0 | 0.00 | 0.00 | 0.00 | 72 | 1018.1 |
| 20260831190008 | 60 | 46 | 4.0 | 7.0 | 0.00 | 0.00 | 0.00 | 72 | 1018.0 |
| 20260831185808 | 60 | 46 | 4.0 | 7.0 | 0.00 | 0.00 | 0.00 | 72 | 1017.9 |
| 20260831185608 | 60 | 46 | 4.0 | 8.0 | 0.00 | 0.00 | 0.00 | 72 | 1017.9 |
| 20260831185208 | 60 | 46 | 5.0 | 9.0 | 0.00 | 0.00 | 0.00 | 71 | 1018.0 |
| 20260831185008 | 60 | 45 | 6.0 | 9.0 | 0.00 | 0.00 | 0.00 | 71 | 1018.0 |
| 20260831184807 | 60 | 45 | 7.0 | 10.0 | 0.00 | 0.00 | 0.00 | 71 | 1018.1 |
| 20260831184608 | 60 | 45 | 8.0 | 14.0 | 0.00 | 0.00 | 0.00 | 71 | 1018.0 |
| 20260831184408 | 60 | 45 | 8.0 | 14.0 | 0.00 | 0.00 | 0.00 | 72 | 1018.0 |
| 20260831184208 | 60 | 45 | 9.0 | 14.0 | 0.00 | 0.00 | 0.00 | 72 | 1018.2 |
| 20260831184008 | 60 | 45 | 9.0 | 14.0 | 0.00 | 0.00 | 0.00 | 71 | 1018.1 |
| 20260831183808 | 60 | 45 | 9.0 | 15.0 | 0.00 | 0.00 | 0.00 | 71 | 1018.0 |
| 20260831183607 | 60 | 45 | 9.0 | 15.0 | 0.00 | 0.00 | 0.00 | 71 | 1018.1 |
| 20260831183407 | 60 | 46 | 9.0 | 15.0 | 0.00 | 0.00 | 0.00 | 71 | 1018.0 |
| 20260831182808 | 61 | 46 | 8.0 | 19.0 | 0.00 | 0.00 | 0.00 | 71 | 1018.0 |
| 20260831182608 | 61 | 45 | 7.0 | 19.0 | 0.00 | 0.00 | 0.00 | 71 | 1018.0 |
| 20260831182408 | 61 | 45 | 7.0 | 19.0 | 0.00 | 0.00 | 0.00 | 70 | 1018.0 |
| 20260831182207 | 61 | 45 | 7.0 | 19.0 | 0.00 | 0.00 | 0.00 | 70 | 1017.9 |
| 20260831182007 | 61 | 46 | 7.0 | 12.0 | 0.00 | 0.00 | 0.00 | 69 | 1017.9 |
| 20260831181807 | 62 | 46 | 7.0 | 11.0 | 0.00 | 0.00 | 0.00 | 69 | 1017.8 |
| 20260831181607 | 62 | 46 | 7.0 | 11.0 | 0.00 | 0.00 | 0.00 | 68 | 1017.8 |
| 20260831181408 | 62 | 46 | 7.0 | 11.0 | 0.00 | 0.00 | 0.00 | 68 | 1017.7 |
| 20260831181208 | 62 | 46 | 7.0 | 11.0 | 0.00 | 0.00 | 0.00 | 68 | 1017.7 |
| 20260831181008 | 62 | 46 | 6.0 | 11.0 | 0.00 | 0.00 | 0.00 | 68 | 1017.7 |
| 20260831180608 | 62 | 46 | 6.0 | 12.0 | 0.00 | 0.00 | 0.00 | 68 | 1017.8 |
| 20260831180207 | 62 | 46 | 6.0 | 12.0 | 0.00 | 0.00 | 0.00 | 68 | 1017.7 |
| 20260831180007 | 62 | 45 | 6.0 | 12.0 | 0.00 | 0.00 | 0.00 | 68 | 1017.7 |
| 20260831175808 | 62 | 45 | 6.0 | 12.0 | 0.00 | 0.00 | 0.00 | 68 | 1017.7 |
| 20260831175608 | 62 | 46 | 6.0 | 10.0 | 0.00 | 0.00 | 0.00 | 67 | 1017.6 |
| 20260831175408 | 62 | 45 | 7.0 | 10.0 | 0.00 | 0.00 | 0.00 | 67 | 1017.5 |
| 20260831175207 | 62 | 46 | 7.0 | 10.0 | 0.00 | 0.00 | 0.00 | 67 | 1017.5 |
| 20260831175007 | 62 | 46 | 7.0 | 12.0 | 0.00 | 0.00 | 0.00 | 66 | 1017.6 |
| 20260831174807 | 63 | 46 | 7.0 | 12.0 | 0.00 | 0.00 | 0.00 | 65 | 1017.5 |
| 20260831174608 | 63 | 46 | 8.0 | 12.0 | 0.00 | 0.00 | 0.00 | 65 | 1017.4 |
| 20260831174408 | 63 | 45 | 8.0 | 12.0 | 0.00 | 0.00 | 0.00 | 64 | 1017.4 |
| 20260831174208 | 64 | 46 | 9.0 | 12.0 | 0.00 | 0.00 | 0.00 | 63 | 1017.3 |
| 20260831174008 | 64 | 45 | 9.0 | 13.0 | 0.00 | 0.00 | 0.00 | 62 | 1017.4 |
| 20260831173807 | 64 | 45 | 9.0 | 15.0 | 0.00 | 0.00 | 0.00 | 62 | 1017.5 |
| 20260831173607 | 64 | 45 | 9.0 | 16.0 | 0.00 | 0.00 | 0.00 | 62 | 1017.5 |
| 20260831173408 | 64 | 46 | 9.0 | 16.0 | 0.00 | 0.00 | 0.00 | 62 | 1017.5 |
| 20260831173208 | 64 | 46 | 10.0 | 16.0 | 0.00 | 0.00 | 0.00 | 62 | 1017.4 |
| 20260831173008 | 64 | 46 | 10.0 | 16.0 | 0.00 | 0.00 | 0.00 | 61 | 1017.3 |
| 20260831172808 | 64 | 46 | 10.0 | 16.0 | 0.00 | 0.00 | 0.00 | 62 | 1017.4 |
| 20260831172607 | 64 | 45 | 10.0 | 17.0 | 0.00 | 0.00 | 0.00 | 62 | 1017.4 |
| 20260831172407 | 64 | 45 | 9.0 | 17.0 | 0.00 | 0.00 | 0.00 | 64 | 1017.4 |
| 20260831172207 | 64 | 45 | 9.0 | 17.0 | 0.00 | 0.00 | 0.00 | 63 | 1017.4 |
| 20260831172007 | 64 | 45 | 8.0 | 17.0 | 0.00 | 0.00 | 0.00 | 63 | 1017.4 |
| 20260831171608 | 64 | 45 | 8.0 | 16.0 | 0.00 | 0.00 | 0.00 | 64 | 1017.4 |
| 20260831171408 | 64 | 45 | 8.0 | 16.0 | 0.00 | 0.00 | 0.00 | 65 | 1017.4 |
| 20260831171208 | 64 | 45 | 8.0 | 16.0 | 0.00 | 0.00 | 0.00 | 65 | 1017.3 |
| 20260831171008 | 64 | 45 | 8.0 | 14.0 | 0.00 | 0.00 | 0.00 | 67 | 1017.3 |
| 20260831170807 | 64 | 45 | 8.0 | 14.0 | 0.00 | 0.00 | 0.00 | 67 | 1017.3 |
| 20260831170607 | 64 | 45 | 7.0 | 14.0 | 0.00 | 0.00 | 0.00 | 67 | 1017.2 |
| 20260831170407 | 64 | 46 | 7.0 | 14.0 | 0.00 | 0.00 | 0.00 | 67 | 1017.3 |
| 20260831170208 | 64 | 45 | 7.0 | 14.0 | 0.00 | 0.00 | 0.00 | 68 | 1017.3 |
| 20260831170008 | 64 | 45 | 6.0 | 14.0 | 0.00 | 0.00 | 0.00 | 68 | 1017.3 |
| 20260831165808 | 63 | 45 | 6.0 | 14.0 | 0.00 | 0.00 | 0.00 | 67 | 1017.2 |
| 20260831165608 | 63 | 45 | 6.0 | 14.0 | 0.00 | 0.00 | 0.00 | 67 | 1017.2 |
| 20260831165407 | 64 | 45 | 7.0 | 11.0 | 0.00 | 0.00 | 0.00 | 67 | 1017.2 |
| 20260831165208 | 64 | 46 | 7.0 | 11.0 | 0.00 | 0.00 | 0.00 | 67 | 1017.2 |
| 20260831165008 | 64 | 46 | 7.0 | 11.0 | 0.00 | 0.00 | 0.00 | 67 | 1017.2 |
| 20260831164808 | 64 | 46 | 6.0 | 11.0 | 0.00 | 0.00 | 0.00 | 66 | 1017.0 |
| 20260831164607 | 64 | 46 | 6.0 | 11.0 | 0.00 | 0.00 | 0.00 | 66 | 1017.1 |
| 20260831164407 | 64 | 46 | 6.0 | 11.0 | 0.00 | 0.00 | 0.00 | 65 | 1017.1 |
| 20260831164207 | 65 | 45 | 6.0 | 11.0 | 0.00 | 0.00 | 0.00 | 65 | 1017.0 |
| 20260831163607 | 65 | 46 | 7.0 | 10.0 | 0.00 | 0.00 | 0.00 | 65 | 1017.0 |
| 20260831163408 | 65 | 45 | 7.0 | 10.0 | 0.00 | 0.00 | 0.00 | 67 | 1017.1 |
| 20260831163208 | 64 | 46 | 7.0 | 10.0 | 0.00 | 0.00 | 0.00 | 68 | 1017.1 |
| 20260831163008 | 64 | 46 | 8.0 | 12.0 | 0.00 | 0.00 | 0.00 | 68 | 1017.1 |
| 20260831162608 | 63 | 45 | 8.0 | 14.0 | 0.00 | 0.00 | 0.00 | 68 | 1017.1 |
| 20260831162408 | 63 | 46 | 8.0 | 14.0 | 0.00 | 0.00 | 0.00 | 68 | 1017.2 |
| 20260831162208 | 63 | 45 | 8.0 | 14.0 | 0.00 | 0.00 | 0.00 | 67 | 1017.1 |
| 20260831162008 | 63 | 45 | 8.0 | 14.0 | 0.00 | 0.00 | 0.00 | 67 | 1017.1 |
| 20260831161808 | 63 | 46 | 8.0 | 13.0 | 0.00 | 0.00 | 0.00 | 67 | 1017.0 |
| 20260831161607 | 63 | 46 | 8.0 | 13.0 | 0.00 | 0.00 | 0.00 | 66 | 1017.0 |
| 20260831161407 | 63 | 45 | 8.0 | 13.0 | 0.00 | 0.00 | 0.00 | 67 | 1016.9 |
| 20260831161008 | 63 | 46 | 8.0 | 13.0 | 0.00 | 0.00 | 0.00 | 66 | 1016.9 |
| 20260831160808 | 63 | 45 | 8.0 | 13.0 | 0.00 | 0.00 | 0.00 | 67 | 1017.0 |
| 20260831160608 | 64 | 45 | 8.0 | 13.0 | 0.00 | 0.00 | 0.00 | 66 | 1016.9 |
| 20260831160408 | 64 | 45 | 8.0 | 13.0 | 0.00 | 0.00 | 0.00 | 66 | 1016.9 |
| 20260831160007 | 64 | 45 | 8.0 | 15.0 | 0.00 | 0.00 | 0.00 | 66 | 1016.8 |
| 20260831155607 | 64 | 46 | 9.0 | 15.0 | 0.00 | 0.00 | 0.00 | 60 | 1016.9 |
| 20260831155208 | 64 | 45 | 8.0 | 15.0 | 0.00 | 0.00 | 0.00 | 59 | 1016.9 |
| 20260831155008 | 64 | 45 | 7.0 | 15.0 | 0.00 | 0.00 | 0.00 | 59 | 1016.9 |
| 20260831154808 | 64 | 45 | 7.0 | 15.0 | 0.00 | 0.00 | 0.00 | 59 | 1016.9 |
| 20260831154607 | 64 | 45 | 6.0 | 15.0 | 0.00 | 0.00 | 0.00 | 58 | 1016.8 |
| 20260831154408 | 65 | 46 | 6.0 | 15.0 | 0.00 | 0.00 | 0.00 | 57 | 1016.7 |
| 20260831153608 | 65 | 45 | 7.0 | 13.0 | 0.00 | 0.00 | 0.00 | 59 | 1016.7 |
| 20260831153408 | 65 | 45 | 7.0 | 13.0 | 0.00 | 0.00 | 0.00 | 60 | 1016.7 |
| 20260831153208 | 65 | 45 | 7.0 | 13.0 | 0.00 | 0.00 | 0.00 | 59 | 1016.7 |
| 20260831153010 | 64 | 45 | 7.0 | 13.0 | 0.00 | 0.00 | 0.00 | 59 | 1016.6 |
| 20260831152808 | 64 | 46 | 7.0 | 13.0 | 0.00 | 0.00 | 0.00 | 60 | 1016.7 |
| 20260831152208 | 64 | 45 | 7.0 | 12.0 | 0.00 | 0.00 | 0.00 | 60 | 1016.8 |
| 20260831152008 | 64 | 45 | 7.0 | 12.0 | 0.00 | 0.00 | 0.00 | 60 | 1016.6 |
| 20260831151808 | 64 | 45 | 7.0 | 12.0 | 0.00 | 0.00 | 0.00 | 59 | 1016.8 |
| 20260831151608 | 64 | 46 | 6.0 | 12.0 | 0.00 | 0.00 | 0.00 | 58 | 1016.7 |
| 20260831151407 | 64 | 46 | 6.0 | 11.0 | 0.00 | 0.00 | 0.00 | 59 | 1016.6 |
| 20260831151208 | 65 | 46 | 6.0 | 11.0 | 0.00 | 0.00 | 0.00 | 58 | 1016.7 |
| 20260831151008 | 65 | 46 | 6.0 | 11.0 | 0.00 | 0.00 | 0.00 | 58 | 1016.7 |
| 20260831150808 | 65 | 46 | 6.0 | 12.0 | 0.00 | 0.00 | 0.00 | 59 | 1016.6 |
| 20260831150608 | 65 | 46 | 7.0 | 12.0 | 0.00 | 0.00 | 0.00 | 59 | 1016.6 |
| 20260831150408 | 64 | 46 | 7.0 | 13.0 | 0.00 | 0.00 | 0.00 | 60 | 1016.7 |
| 20260831150208 | 64 | 45 | 7.0 | 14.0 | 0.00 | 0.00 | 0.00 | 59 | 1016.7 |
| 20260831150008 | 64 | 46 | 7.0 | 14.0 | 0.00 | 0.00 | 0.00 | 59 | 1016.7 |
| 20260831145608 | 64 | 45 | 7.0 | 14.0 | 0.00 | 0.00 | 0.00 | 59 | 1016.7 |
| 20260831145407 | 64 | 46 | 7.0 | 14.0 | 0.00 | 0.00 | 0.00 | 59 | 1016.7 |
| 20260831145208 | 64 | 45 | 6.0 | 12.0 | 0.00 | 0.00 | 0.00 | 57 | 1016.8 |
| 20260831145008 | 64 | 46 | 6.0 | 13.0 | 0.00 | 0.00 | 0.00 | 57 | 1016.7 |
| 20260831144807 | 64 | 46 | 7.0 | 13.0 | 0.00 | 0.00 | 0.00 | 57 | 1016.7 |
| 20260831144608 | 64 | 45 | 7.0 | 13.0 | 0.00 | 0.00 | 0.00 | 59 | 1016.7 |
| 20260831144408 | 64 | 46 | 7.0 | 13.0 | 0.00 | 0.00 | 0.00 | 59 | 1016.6 |
| 20260831144208 | 64 | 46 | 8.0 | 13.0 | 0.00 | 0.00 | 0.00 | 60 | 1016.6 |
| 20260831143808 | 64 | 46 | 8.0 | 13.0 | 0.00 | 0.00 | 0.00 | 60 | 1016.6 |
| 20260831143607 | 64 | 45 | 8.0 | 13.0 | 0.00 | 0.00 | 0.00 | 60 | 1016.6 |
| 20260831143408 | 64 | 45 | 8.0 | 13.0 | 0.00 | 0.00 | 0.00 | 59 | 1016.6 |
| 20260831143208 | 64 | 45 | 8.0 | 13.0 | 0.00 | 0.00 | 0.00 | 59 | 1016.6 |
| 20260831143007 | 64 | 45 | 8.0 | 13.0 | 0.00 | 0.00 | 0.00 | 59 | 1016.5 |
| 20260831142808 | 64 | 46 | 7.0 | 13.0 | 0.00 | 0.00 | 0.00 | 58 | 1016.5 |
| 20260831142608 | 64 | 45 | 7.0 | 15.0 | 0.00 | 0.00 | 0.00 | 58 | 1016.5 |
| 20260831142408 | 64 | 46 | 7.0 | 15.0 | 0.00 | 0.00 | 0.00 | 59 | 1016.5 |
| 20260831142208 | 63 | 46 | 7.0 | 15.0 | 0.00 | 0.00 | 0.00 | 59 | 1016.5 |
| 20260831142007 | 63 | 45 | 6.0 | 15.0 | 0.00 | 0.00 | 0.00 | 58 | 1016.5 |
| 20260831141808 | 63 | 45 | 7.0 | 15.0 | 0.00 | 0.00 | 0.00 | 58 | 1016.5 |
| 20260831141608 | 64 | 46 | 7.0 | 14.0 | 0.00 | 0.00 | 0.00 | 58 | 1016.4 |
| 20260831141408 | 64 | 46 | 7.0 | 14.0 | 0.00 | 0.00 | 0.00 | 57 | 1016.4 |
| 20260831141208 | 64 | 45 | 8.0 | 14.0 | 0.00 | 0.00 | 0.00 | 58 | 1016.3 |
| 20260831141007 | 64 | 45 | 8.0 | 14.0 | 0.00 | 0.00 | 0.00 | 58 | 1016.4 |
| 20260831140808 | 64 | 45 | 8.0 | 14.0 | 0.00 | 0.00 | 0.00 | 58 | 1016.4 |
| 20260831140608 | 64 | 45 | 8.0 | 14.0 | 0.00 | 0.00 | 0.00 | 57 | 1016.4 |
| 20260831140408 | 64 | 45 | 8.0 | 14.0 | 0.00 | 0.00 | 0.00 | 57 | 1016.4 |
| 20260831140208 | 64 | 45 | 8.0 | 13.0 | 0.00 | 0.00 | 0.00 | 56 | 1016.4 |
| 20260831140008 | 64 | 45 | 8.0 | 17.0 | 0.00 | 0.00 | 0.00 | 56 | 1016.4 |
| 20260831135208 | 64 | 45 | 9.0 | 17.0 | 0.00 | 0.00 | 0.00 | 56 | 1016.4 |
| 20260831135007 | 64 | 46 | 9.0 | 16.0 | 0.00 | 0.00 | 0.00 | 56 | 1016.3 |
| 20260831134808 | 64 | 45 | 9.0 | 17.0 | 0.00 | 0.00 | 0.00 | 56 | 1016.3 |
| 20260831134608 | 64 | 46 | 10.0 | 17.0 | 0.00 | 0.00 | 0.00 | 55 | 1016.3 |
| 20260831134408 | 64 | 45 | 10.0 | 18.0 | 0.00 | 0.00 | 0.00 | 56 | 1016.3 |
| 20260831134008 | 64 | 45 | 9.0 | 18.0 | 0.00 | 0.00 | 0.00 | 57 | 1016.1 |
| 20260831133808 | 63 | 45 | 8.0 | 18.0 | 0.00 | 0.00 | 0.00 | 57 | 1016.1 |
| 20260831133607 | 63 | 45 | 7.0 | 18.0 | 0.00 | 0.00 | 0.00 | 56 | 1016.1 |
| 20260831133407 | 64 | 46 | 7.0 | 15.0 | 0.00 | 0.00 | 0.00 | 55 | 1016.1 |
| 20260831133208 | 64 | 45 | 7.0 | 15.0 | 0.00 | 0.00 | 0.00 | 56 | 1016.1 |
| 20260831133008 | 64 | 46 | 7.0 | 14.0 | 0.00 | 0.00 | 0.00 | 58 | 1016.0 |
| 20260831132808 | 64 | 46 | 8.0 | 14.0 | 0.00 | 0.00 | 0.00 | 59 | 1016.0 |
| 20260831132608 | 63 | 46 | 8.0 | 14.0 | 0.00 | 0.00 | 0.00 | 60 | 1016.1 |
| 20260831132408 | 63 | 45 | 9.0 | 14.0 | 0.00 | 0.00 | 0.00 | 59 | 1016.1 |
| 20260831132208 | 63 | 45 | 9.0 | 15.0 | 0.00 | 0.00 | 0.00 | 59 | 1016.2 |
| 20260831131808 | 63 | 45 | 9.0 | 16.0 | 0.00 | 0.00 | 0.00 | 57 | 1016.1 |
| 20260831131608 | 63 | 45 | 9.0 | 16.0 | 0.00 | 0.00 | 0.00 | 57 | 1016.1 |
| 20260831131407 | 63 | 45 | 10.0 | 16.0 | 0.00 | 0.00 | 0.00 | 57 | 1016.2 |
| 20260831131208 | 64 | 45 | 10.0 | 17.0 | 0.00 | 0.00 | 0.00 | 56 | 1016.2 |
| 20260831131008 | 64 | 45 | 10.0 | 17.0 | 0.00 | 0.00 | 0.00 | 57 | 1016.0 |
| 20260831130808 | 64 | 45 | 9.0 | 17.0 | 0.00 | 0.00 | 0.00 | 56 | 1016.1 |
| 20260831130608 | 64 | 46 | 9.0 | 17.0 | 0.00 | 0.00 | 0.00 | 56 | 1016.1 |
| 20260831130208 | 64 | 45 | 9.0 | 16.0 | 0.00 | 0.00 | 0.00 | 56 | 1016.0 |
| 20260831130008 | 64 | 45 | 9.0 | 16.0 | 0.00 | 0.00 | 0.00 | 56 | 1015.9 |
| 20260831125808 | 64 | 46 | 9.0 | 16.0 | 0.00 | 0.00 | 0.00 | 57 | 1016.0 |
| 20260831125608 | 64 | 46 | 9.0 | 16.0 | 0.00 | 0.00 | 0.00 | 58 | 1015.9 |
| 20260831125408 | 63 | 45 | 9.0 | 15.0 | 0.00 | 0.00 | 0.00 | 57 | 1015.9 |
| 20260831125208 | 63 | 45 | 9.0 | 15.0 | 0.00 | 0.00 | 0.00 | 57 | 1016.0 |
| 20260831124808 | 63 | 45 | 9.0 | 16.0 | 0.00 | 0.00 | 0.00 | 56 | 1015.9 |
| 20260831124408 | 63 | 45 | 9.0 | 16.0 | 0.00 | 0.00 | 0.00 | 55 | 1015.9 |
| 20260831124207 | 63 | 46 | 10.0 | 16.0 | 0.00 | 0.00 | 0.00 | 54 | 1015.9 |
| 20260831124008 | 63 | 45 | 9.0 | 17.0 | 0.00 | 0.00 | 0.00 | 54 | 1015.9 |
| 20260831123808 | 63 | 46 | 9.0 | 17.0 | 0.00 | 0.00 | 0.00 | 55 | 1015.9 |
| 20260831123608 | 63 | 45 | 9.0 | 17.0 | 0.00 | 0.00 | 0.00 | 55 | 1015.9 |
| 20260831123408 | 63 | 46 | 8.0 | 17.0 | 0.00 | 0.00 | 0.00 | 55 | 1015.9 |
| 20260831123210 | 63 | 45 | 7.0 | 17.0 | 0.00 | 0.00 | 0.00 | 54 | 1015.8 |
| 20260831123008 | 63 | 45 | 7.0 | 16.0 | 0.00 | 0.00 | 0.00 | 54 | 1015.8 |
| 20260831122618 | 63 | 46 | 7.0 | 14.0 | 0.00 | 0.00 | 0.00 | 55 | 1015.9 |
| 20260831122409 | 63 | 45 | 8.0 | 20.0 | 0.00 | 0.00 | 0.00 | 55 | 1015.7 |
| 20260831122211 | 64 | 46 | 8.0 | 20.0 | 0.00 | 0.00 | 0.00 | 57 | 1015.8 |
| 20260831121808 | 64 | 46 | 9.0 | 20.0 | 0.00 | 0.00 | 0.00 | 55 | 1015.8 |
| 20260831121408 | 64 | 45 | 11.0 | 18.0 | 0.00 | 0.00 | 0.00 | 57 | 1015.7 |
| 20260831121208 | 63 | 46 | 11.0 | 18.0 | 0.00 | 0.00 | 0.00 | 57 | 1015.6 |
| 20260831121010 | 63 | 45 | 11.0 | 18.0 | 0.00 | 0.00 | 0.00 | 57 | 1015.7 |
| 20260831120608 | 63 | 45 | 10.0 | 17.0 | 0.00 | 0.00 | 0.00 | 57 | 1015.6 |
| 20260831120408 | 63 | 46 | 10.0 | 17.0 | 0.00 | 0.00 | 0.00 | 58 | 1015.6 |
| 20260831120207 | 64 | 46 | 10.0 | 17.0 | 0.00 | 0.00 | 0.00 | 58 | 1015.6 |
| 20260831120008 | 64 | 45 | 10.0 | 18.0 | 0.00 | 0.00 | 0.00 | 59 | 1015.4 |
| 20260831115808 | 64 | 45 | 10.0 | 18.0 | 0.00 | 0.00 | 0.00 | 60 | 1015.5 |
| 20260831115607 | 64 | 46 | 10.0 | 18.0 | 0.00 | 0.00 | 0.00 | 59 | 1015.4 |
| 20260831115008 | 63 | 46 | 10.0 | 12.0 | 0.00 | 0.00 | 0.00 | 61 | 1015.3 |
| 20260831114808 | 63 | 46 | 10.0 | 13.0 | 0.00 | 0.00 | 0.00 | 60 | 1015.4 |
| 20260831114407 | 63 | 45 | 10.0 | 20.0 | 0.00 | 0.00 | 0.00 | 60 | 1015.5 |
| 20260831114208 | 63 | 45 | 10.0 | 20.0 | 0.00 | 0.00 | 0.00 | 62 | 1015.5 |
| 20260831114008 | 63 | 45 | 9.0 | 20.0 | 0.00 | 0.00 | 0.00 | 63 | 1015.6 |
| 20260831113608 | 62 | 45 | 8.0 | 16.0 | 0.00 | 0.00 | 0.00 | 64 | 1015.3 |
| 20260831113408 | 62 | 46 | 8.0 | 15.0 | 0.00 | 0.00 | 0.00 | 64 | 1015.4 |
| 20260831113007 | 62 | 45 | 7.0 | 15.0 | 0.00 | 0.00 | 0.00 | 63 | 1015.4 |
| 20260831112608 | 62 | 46 | 8.0 | 13.0 | 0.00 | 0.00 | 0.00 | 63 | 1015.4 |
| 20260831112407 | 62 | 46 | 8.0 | 13.0 | 0.00 | 0.00 | 0.00 | 63 | 1015.3 |
| 20260831112008 | 62 | 46 | 8.0 | 13.0 | 0.00 | 0.00 | 0.00 | 65 | 1015.1 |
| 20260831111808 | 62 | 45 | 8.0 | 14.0 | 0.00 | 0.00 | 0.00 | 67 | 1015.1 |
| 20260831111607 | 61 | 45 | 8.0 | 16.0 | 0.00 | 0.00 | 0.00 | 65 | 1015.1 |
| 20260831111408 | 62 | 45 | 8.0 | 16.0 | 0.00 | 0.00 | 0.00 | 65 | 1015.2 |
| 20260831111208 | 62 | 45 | 9.0 | 16.0 | 0.00 | 0.00 | 0.00 | 65 | 1015.2 |
| 20260831111008 | 62 | 46 | 9.0 | 16.0 | 0.00 | 0.00 | 0.00 | 64 | 1015.1 |
| 20260831110808 | 62 | 45 | 10.0 | 16.0 | 0.00 | 0.00 | 0.00 | 64 | 1015.1 |
| 20260831110607 | 62 | 45 | 10.0 | 16.0 | 0.00 | 0.00 | 0.00 | 67 | 1015.1 |
| 20260831110408 | 62 | 45 | 10.0 | 17.0 | 0.00 | 0.00 | 0.00 | 66 | 1015.1 |
| 20260831110207 | 61 | 46 | 10.0 | 20.0 | 0.00 | 0.00 | 0.00 | 66 | 1015.2 |
| 20260831110008 | 60 | 45 | 10.0 | 20.0 | 0.00 | 0.00 | 0.00 | 66 | 1015.2 |
| 20260831105608 | 61 | 45 | 10.0 | 20.0 | 0.00 | 0.00 | 0.00 | 65 | 1015.1 |
| 20260831105408 | 61 | 45 | 10.0 | 20.0 | 0.00 | 0.00 | 0.00 | 65 | 1015.1 |
| 20260831105208 | 61 | 45 | 10.0 | 19.0 | 0.00 | 0.00 | 0.00 | 65 | 1015.0 |
| 20260831105007 | 61 | 45 | 10.0 | 19.0 | 0.00 | 0.00 | 0.00 | 64 | 1015.0 |
| 20260831104808 | 61 | 45 | 10.0 | 18.0 | 0.00 | 0.00 | 0.00 | 63 | 1015.0 |
| 20260831104607 | 62 | 45 | 10.0 | 18.0 | 0.00 | 0.00 | 0.00 | 64 | 1014.9 |
| 20260831104407 | 62 | 45 | 10.0 | 18.0 | 0.00 | 0.00 | 0.00 | 64 | 1014.8 |
| 20260831104207 | 61 | 45 | 10.0 | 16.0 | 0.00 | 0.00 | 0.00 | 65 | 1014.9 |
| 20260831104008 | 61 | 45 | 10.0 | 16.0 | 0.00 | 0.00 | 0.00 | 67 | 1015.0 |
| 20260831103807 | 61 | 46 | 10.0 | 16.0 | 0.00 | 0.00 | 0.00 | 65 | 1014.8 |
| 20260831103607 | 61 | 45 | 10.0 | 17.0 | 0.00 | 0.00 | 0.00 | 65 | 1014.8 |
| 20260831103208 | 61 | 45 | 10.0 | 17.0 | 0.00 | 0.00 | 0.00 | 66 | 1014.8 |
| 20260831103008 | 61 | 46 | 10.0 | 17.0 | 0.00 | 0.00 | 0.00 | 65 | 1014.8 |
| 20260831102808 | 61 | 45 | 10.0 | 17.0 | 0.00 | 0.00 | 0.00 | 65 | 1014.7 |
| 20260831102608 | 61 | 45 | 9.0 | 15.0 | 0.00 | 0.00 | 0.00 | 65 | 1014.8 |
| 20260831102408 | 62 | 45 | 9.0 | 16.0 | 0.00 | 0.00 | 0.00 | 65 | 1014.7 |
| 20260831102207 | 62 | 45 | 8.0 | 16.0 | 0.00 | 0.00 | 0.00 | 65 | 1014.8 |
| 20260831101808 | 62 | 46 | 9.0 | 16.0 | 0.00 | 0.00 | 0.00 | 67 | 1014.9 |
| 20260831101608 | 62 | 45 | 9.0 | 16.0 | 0.00 | 0.00 | 0.00 | 67 | 1014.8 |
| 20260831101407 | 61 | 45 | 9.0 | 17.0 | 0.00 | 0.00 | 0.00 | 68 | 1014.9 |
| 20260831101207 | 61 | 46 | 9.0 | 17.0 | 0.00 | 0.00 | 0.00 | 68 | 1014.9 |
| 20260831101008 | 61 | 46 | 8.0 | 17.0 | 0.00 | 0.00 | 0.00 | 68 | 1014.8 |
| 20260831100807 | 61 | 45 | 8.0 | 17.0 | 0.00 | 0.00 | 0.00 | 69 | 1014.8 |
| 20260831100607 | 61 | 45 | 7.0 | 17.0 | 0.00 | 0.00 | 0.00 | 68 | 1014.8 |
| 20260831100408 | 61 | 45 | 7.0 | 16.0 | 0.00 | 0.00 | 0.00 | 69 | 1014.8 |
| 20260831100208 | 61 | 46 | 7.0 | 14.0 | 0.00 | 0.00 | 0.00 | 68 | 1014.9 |
| 20260831100008 | 61 | 46 | 7.0 | 14.0 | 0.00 | 0.00 | 0.00 | 70 | 1014.7 |
| 20260831095807 | 60 | 46 | 8.0 | 14.0 | 0.00 | 0.00 | 0.00 | 69 | 1014.7 |
| 20260831095607 | 60 | 45 | 8.0 | 19.0 | 0.00 | 0.00 | 0.00 | 70 | 1014.7 |
| 20260831095407 | 60 | 45 | 9.0 | 19.0 | 0.00 | 0.00 | 0.00 | 69 | 1014.6 |
| 20260831095008 | 60 | 46 | 10.0 | 19.0 | 0.00 | 0.00 | 0.00 | 70 | 1014.5 |
| 20260831094808 | 60 | 45 | 10.0 | 19.0 | 0.00 | 0.00 | 0.00 | 70 | 1014.5 |
| 20260831094607 | 60 | 45 | 10.0 | 18.0 | 0.00 | 0.00 | 0.00 | 72 | 1014.4 |
| 20260831094408 | 60 | 46 | 9.0 | 20.0 | 0.00 | 0.00 | 0.00 | 71 | 1014.6 |
| 20260831094208 | 60 | 46 | 9.0 | 20.0 | 0.00 | 0.00 | 0.00 | 70 | 1014.5 |
| 20260831094008 | 60 | 46 | 9.0 | 20.0 | 0.00 | 0.00 | 0.00 | 70 | 1014.6 |
| 20260831093808 | 60 | 45 | 9.0 | 20.0 | 0.00 | 0.00 | 0.00 | 71 | 1014.4 |
| 20260831093408 | 60 | 45 | 8.0 | 15.0 | 0.00 | 0.00 | 0.00 | 71 | 1014.4 |
| 20260831093208 | 60 | 45 | 8.0 | 15.0 | 0.00 | 0.00 | 0.00 | 72 | 1014.4 |
| 20260831093008 | 60 | 45 | 8.0 | 16.0 | 0.00 | 0.00 | 0.00 | 72 | 1014.5 |
| 20260831092808 | 60 | 45 | 8.0 | 16.0 | 0.00 | 0.00 | 0.00 | 72 | 1014.4 |
| 20260831092607 | 60 | 46 | 8.0 | 16.0 | 0.00 | 0.00 | 0.00 | 71 | 1014.5 |
| 20260831092408 | 60 | 45 | 8.0 | 16.0 | 0.00 | 0.00 | 0.00 | 73 | 1014.4 |
| 20260831092207 | 60 | 46 | 8.0 | 16.0 | 0.00 | 0.00 | 0.00 | 73 | 1014.4 |
| 20260831092008 | 60 | 45 | 8.0 | 16.0 | 0.00 | 0.00 | 0.00 | 73 | 1014.4 |
| 20260831091808 | 60 | 46 | 8.0 | 16.0 | 0.00 | 0.00 | 0.00 | 73 | 1014.4 |
| 20260831091608 | 60 | 45 | 7.0 | 16.0 | 0.00 | 0.00 | 0.00 | 72 | 1014.2 |
| 20260831091408 | 60 | 45 | 7.0 | 16.0 | 0.00 | 0.00 | 0.00 | 72 | 1014.2 |
| 20260831091208 | 60 | 45 | 7.0 | 16.0 | 0.00 | 0.00 | 0.00 | 73 | 1014.3 |
| 20260831091007 | 60 | 46 | 7.0 | 14.0 | 0.00 | 0.00 | 0.00 | 74 | 1014.2 |
| 20260831090808 | 60 | 46 | 7.0 | 14.0 | 0.00 | 0.00 | 0.00 | 75 | 1014.1 |
| 20260831090607 | 60 | 45 | 7.0 | 14.0 | 0.00 | 0.00 | 0.00 | 75 | 1014.1 |
| 20260831090407 | 60 | 45 | 7.0 | 17.0 | 0.00 | 0.00 | 0.00 | 75 | 1014.2 |
| 20260831090208 | 60 | 46 | 7.0 | 17.0 | 0.00 | 0.00 | 0.00 | 76 | 1014.2 |
| 20260831090012 | 59 | 46 | 8.0 | 17.0 | 0.00 | 0.00 | 0.00 | 75 | 1014.2 |
| 20260831085808 | 59 | 46 | 7.0 | 17.0 | 0.00 | 0.00 | 0.00 | 74 | 1014.1 |
| 20260831085407 | 59 | 46 | 7.0 | 16.0 | 0.00 | 0.00 | 0.00 | 77 | 1014.0 |
| 20260831085207 | 59 | 46 | 8.0 | 16.0 | 0.00 | 0.00 | 0.00 | 76 | 1013.9 |
| 20260831085008 | 59 | 46 | 8.0 | 16.0 | 0.00 | 0.00 | 0.00 | 76 | 1013.9 |
| 20260831084607 | 58 | 45 | 8.0 | 16.0 | 0.00 | 0.00 | 0.00 | 77 | 1013.9 |
| 20260831084407 | 58 | 46 | 8.0 | 16.0 | 0.00 | 0.00 | 0.00 | 77 | 1013.9 |
| 20260831084207 | 58 | 46 | 7.0 | 16.0 | 0.00 | 0.00 | 0.00 | 77 | 1013.8 |
| 20260831083808 | 58 | 45 | 7.0 | 16.0 | 0.00 | 0.00 | 0.00 | 77 | 1013.8 |
| 20260831083607 | 58 | 46 | 8.0 | 15.0 | 0.00 | 0.00 | 0.00 | 77 | 1013.7 |
| 20260831083407 | 58 | 46 | 7.0 | 15.0 | 0.00 | 0.00 | 0.00 | 78 | 1013.9 |
| 20260831083208 | 58 | 45 | 7.0 | 15.0 | 0.00 | 0.00 | 0.00 | 78 | 1013.7 |
| 20260831083007 | 58 | 45 | 7.0 | 15.0 | 0.00 | 0.00 | 0.00 | 77 | 1013.8 |
| 20260831082808 | 58 | 46 | 6.0 | 15.0 | 0.00 | 0.00 | 0.00 | 77 | 1013.7 |
| 20260831082607 | 58 | 45 | 5.0 | 13.0 | 0.00 | 0.00 | 0.00 | 78 | 1013.7 |
| 20260831082207 | 59 | 45 | 5.0 | 13.0 | 0.00 | 0.00 | 0.00 | 79 | 1013.6 |
| 20260831082008 | 58 | 46 | 4.0 | 13.0 | 0.00 | 0.00 | 0.00 | 80 | 1013.7 |
| 20260831081808 | 58 | 46 | 4.0 | 8.0 | 0.00 | 0.00 | 0.00 | 81 | 1013.7 |
| 20260831081608 | 58 | 45 | 4.0 | 8.0 | 0.00 | 0.00 | 0.00 | 81 | 1013.6 |
| 20260831081407 | 58 | 46 | 4.0 | 8.0 | 0.00 | 0.00 | 0.00 | 82 | 1013.6 |
| 20260831081208 | 58 | 45 | 4.0 | 8.0 | 0.00 | 0.00 | 0.00 | 82 | 1013.4 |
| 20260831081007 | 57 | 45 | 4.0 | 8.0 | 0.00 | 0.00 | 0.00 | 82 | 1013.5 |
| 20260831080808 | 57 | 45 | 5.0 | 8.0 | 0.00 | 0.00 | 0.00 | 83 | 1013.4 |
| 20260831080607 | 57 | 46 | 5.0 | 9.0 | 0.00 | 0.00 | 0.00 | 83 | 1013.3 |
| 20260831080408 | 57 | 46 | 5.0 | 9.0 | 0.00 | 0.00 | 0.00 | 83 | 1013.4 |
| 20260831080207 | 57 | 45 | 6.0 | 9.0 | 0.00 | 0.00 | 0.00 | 83 | 1013.3 |
| 20260831075808 | 56 | 46 | 6.0 | 10.0 | 0.00 | 0.00 | 0.00 | 84 | 1013.3 |
| 20260831075607 | 56 | 46 | 6.0 | 10.0 | 0.00 | 0.00 | 0.00 | 84 | 1013.3 |
| 20260831075408 | 56 | 46 | 5.0 | 10.0 | 0.00 | 0.00 | 0.00 | 83 | 1013.4 |
| 20260831075208 | 56 | 45 | 5.0 | 10.0 | 0.00 | 0.00 | 0.00 | 84 | 1013.4 |
| 20260831075007 | 56 | 45 | 5.0 | 10.0 | 0.00 | 0.00 | 0.00 | 84 | 1013.4 |
| 20260831074808 | 56 | 46 | 4.0 | 9.0 | 0.00 | 0.00 | 0.00 | 84 | 1013.4 |
| 20260831074607 | 56 | 46 | 4.0 | 9.0 | 0.00 | 0.00 | 0.00 | 84 | 1013.4 |
| 20260831074407 | 56 | 46 | 4.0 | 9.0 | 0.00 | 0.00 | 0.00 | 84 | 1013.3 |
| 20260831074208 | 56 | 46 | 4.0 | 9.0 | 0.00 | 0.00 | 0.00 | 84 | 1013.2 |
| 20260831074008 | 56 | 46 | 3.0 | 9.0 | 0.00 | 0.00 | 0.00 | 85 | 1013.3 |
| 20260831073608 | 56 | 46 | 3.0 | 9.0 | 0.00 | 0.00 | 0.00 | 85 | 1013.2 |
| 20260831073408 | 56 | 46 | 3.0 | 7.0 | 0.00 | 0.00 | 0.00 | 85 | 1013.2 |
| 20260831073208 | 55 | 46 | 3.0 | 7.0 | 0.00 | 0.00 | 0.00 | 85 | 1013.1 |
| 20260831073008 | 55 | 45 | 4.0 | 7.0 | 0.00 | 0.00 | 0.00 | 85 | 1013.1 |
| 20260831072608 | 55 | 46 | 5.0 | 9.0 | 0.00 | 0.00 | 0.00 | 85 | 1013.1 |
| 20260831072407 | 55 | 46 | 5.0 | 9.0 | 0.00 | 0.00 | 0.00 | 85 | 1013.0 |
| 20260831072208 | 55 | 46 | 6.0 | 9.0 | 0.00 | 0.00 | 0.00 | 85 | 1012.9 |
| 20260831072007 | 55 | 45 | 6.0 | 12.0 | 0.00 | 0.00 | 0.00 | 86 | 1013.0 |
| 20260831071808 | 55 | 46 | 7.0 | 12.0 | 0.00 | 0.00 | 0.00 | 86 | 1012.8 |
| 20260831071608 | 55 | 46 | 7.0 | 13.0 | 0.00 | 0.00 | 0.00 | 86 | 1013.0 |
| 20260831071407 | 55 | 45 | 7.0 | 13.0 | 0.00 | 0.00 | 0.00 | 86 | 1012.8 |
| 20260831071208 | 55 | 46 | 7.0 | 13.0 | 0.00 | 0.00 | 0.00 | 86 | 1012.9 |
| 20260831071007 | 55 | 46 | 6.0 | 14.0 | 0.00 | 0.00 | 0.00 | 86 | 1012.8 |
| 20260831070808 | 55 | 45 | 6.0 | 14.0 | 0.00 | 0.00 | 0.00 | 86 | 1012.8 |
| 20260831070607 | 55 | 46 | 6.0 | 14.0 | 0.00 | 0.00 | 0.00 | 86 | 1012.7 |
| 20260831070408 | 55 | 46 | 7.0 | 14.0 | 0.00 | 0.00 | 0.00 | 86 | 1012.6 |
| 20260831070008 | 55 | 46 | 8.0 | 14.0 | 0.00 | 0.00 | 0.00 | 85 | 1012.6 |
| 20260831065407 | 55 | 46 | 8.0 | 15.0 | 0.00 | 0.00 | 0.00 | 85 | 1012.5 |
| 20260831065207 | 55 | 45 | 8.0 | 15.0 | 0.00 | 0.00 | 0.00 | 85 | 1012.5 |
| 20260831064807 | 55 | 45 | 8.0 | 15.0 | 0.00 | 0.00 | 0.00 | 85 | 1012.3 |
| 20260831064607 | 55 | 45 | 8.0 | 15.0 | 0.00 | 0.00 | 0.00 | 85 | 1012.4 |
| 20260831064408 | 55 | 46 | 8.0 | 15.0 | 0.00 | 0.00 | 0.00 | 85 | 1012.4 |
| 20260831064208 | 55 | 46 | 8.0 | 15.0 | 0.00 | 0.00 | 0.00 | 85 | 1012.3 |
| 20260831063808 | 55 | 46 | 8.0 | 15.0 | 0.00 | 0.00 | 0.00 | 85 | 1012.3 |
| 20260831063608 | 55 | 45 | 8.0 | 15.0 | 0.00 | 0.00 | 0.00 | 85 | 1012.1 |
| 20260831063008 | 55 | 45 | 8.0 | 18.0 | 0.00 | 0.00 | 0.00 | 85 | 1012.0 |
| 20260831062808 | 55 | 45 | 8.0 | 18.0 | 0.00 | 0.00 | 0.00 | 85 | 1012.0 |
| 20260831062408 | 55 | 45 | 9.0 | 18.0 | 0.00 | 0.00 | 0.00 | 85 | 1011.9 |
| 20260831062207 | 55 | 46 | 9.0 | 15.0 | 0.00 | 0.00 | 0.00 | 85 | 1011.9 |
| 20260831061807 | 55 | 45 | 9.0 | 15.0 | 0.00 | 0.00 | 0.00 | 85 | 1011.8 |
| 20260831061608 | 55 | 46 | 9.0 | 18.0 | 0.00 | 0.00 | 0.00 | 85 | 1011.8 |
| 20260831061408 | 55 | 46 | 9.0 | 18.0 | 0.00 | 0.00 | 0.00 | 85 | 1011.8 |
| 20260831061208 | 55 | 45 | 9.0 | 18.0 | 0.00 | 0.00 | 0.00 | 85 | 1011.7 |
| 20260831061007 | 55 | 46 | 9.0 | 18.0 | 0.00 | 0.00 | 0.00 | 85 | 1011.5 |
| 20260831060808 | 55 | 46 | 9.0 | 18.0 | 0.00 | 0.00 | 0.00 | 85 | 1011.5 |
| 20260831060608 | 55 | 45 | 9.0 | 18.0 | 0.00 | 0.00 | 0.00 | 85 | 1011.5 |
| 20260831060407 | 55 | 45 | 9.0 | 18.0 | 0.00 | 0.00 | 0.00 | 85 | 1011.5 |
| 20260831060008 | 55 | 46 | 9.0 | 13.0 | 0.00 | 0.00 | 0.00 | 85 | 1011.4 |
| 20260831055808 | 55 | 45 | 9.0 | 13.0 | 0.00 | 0.00 | 0.00 | 85 | 1011.5 |
| 20260831055607 | 55 | 45 | 9.0 | 13.0 | 0.00 | 0.00 | 0.00 | 85 | 1011.5 |
| 20260831055408 | 55 | 46 | 9.0 | 13.0 | 0.00 | 0.00 | 0.00 | 85 | 1011.4 |
| 20260831054808 | 55 | 46 | 9.0 | 13.0 | 0.00 | 0.00 | 0.00 | 85 | 1011.3 |
| 20260831054608 | 55 | 45 | 9.0 | 13.0 | 0.00 | 0.00 | 0.00 | 85 | 1011.3 |
| 20260831054208 | 56 | 45 | 9.0 | 13.0 | 0.00 | 0.00 | 0.00 | 85 | 1011.1 |
| 20260831053808 | 56 | 45 | 8.0 | 14.0 | 0.00 | 0.00 | 0.00 | 85 | 1011.1 |
| 20260831053608 | 56 | 46 | 8.0 | 14.0 | 0.00 | 0.00 | 0.00 | 85 | 1010.9 |
| 20260831053408 | 56 | 45 | 8.0 | 14.0 | 0.00 | 0.00 | 0.00 | 85 | 1010.9 |
| 20260831053208 | 56 | 45 | 8.0 | 14.0 | 0.00 | 0.00 | 0.00 | 85 | 1010.9 |
| 20260831052808 | 56 | 45 | 7.0 | 14.0 | 0.00 | 0.00 | 0.00 | 85 | 1010.9 |
| 20260831052608 | 56 | 46 | 7.0 | 14.0 | 0.00 | 0.00 | 0.00 | 85 | 1010.8 |
| 20260831052408 | 56 | 45 | 7.0 | 14.0 | 0.00 | 0.00 | 0.00 | 86 | 1010.9 |
| 20260831052207 | 56 | 45 | 7.0 | 14.0 | 0.00 | 0.00 | 0.00 | 86 | 1010.7 |
| 20260831052008 | 56 | 45 | 6.0 | 12.0 | 0.00 | 0.00 | 0.00 | 86 | 1010.9 |
| 20260831051807 | 56 | 45 | 6.0 | 10.0 | 0.00 | 0.00 | 0.00 | 86 | 1010.9 |
| 20260831051607 | 56 | 46 | 6.0 | 10.0 | 0.00 | 0.00 | 0.00 | 86 | 1010.8 |
| 20260831051408 | 56 | 46 | 6.0 | 10.0 | 0.00 | 0.00 | 0.00 | 86 | 1010.7 |
| 20260831051007 | 57 | 46 | 6.0 | 10.0 | 0.00 | 0.00 | 0.00 | 86 | 1010.6 |
| 20260831050607 | 57 | 46 | 6.0 | 10.0 | 0.00 | 0.00 | 0.00 | 86 | 1010.6 |
| 20260831050408 | 57 | 46 | 6.0 | 10.0 | 0.00 | 0.00 | 0.00 | 85 | 1010.5 |
| 20260831050207 | 57 | 45 | 6.0 | 10.0 | 0.00 | 0.00 | 0.00 | 85 | 1010.5 |
| 20260831045807 | 57 | 46 | 7.0 | 11.0 | 0.00 | 0.00 | 0.00 | 85 | 1010.4 |
| 20260831045608 | 57 | 46 | 7.0 | 11.0 | 0.00 | 0.00 | 0.00 | 85 | 1010.3 |
| 20260831045407 | 57 | 45 | 7.0 | 12.0 | 0.00 | 0.00 | 0.00 | 85 | 1010.2 |
| 20260831045208 | 57 | 46 | 7.0 | 13.0 | 0.00 | 0.00 | 0.00 | 85 | 1010.2 |
| 20260831044808 | 57 | 46 | 7.0 | 13.0 | 0.00 | 0.00 | 0.00 | 85 | 1010.1 |
| 20260831044608 | 57 | 46 | 7.0 | 13.0 | 0.00 | 0.00 | 0.00 | 85 | 1010.2 |
| 20260831044408 | 57 | 45 | 7.0 | 13.0 | 0.00 | 0.00 | 0.00 | 85 | 1010.0 |
| 20260831044008 | 57 | 46 | 8.0 | 12.0 | 0.00 | 0.00 | 0.00 | 86 | 1009.9 |
| 20260831043808 | 57 | 46 | 8.0 | 13.0 | 0.00 | 0.00 | 0.00 | 86 | 1010.2 |
| 20260831043408 | 57 | 45 | 9.0 | 13.0 | 0.00 | 0.00 | 0.00 | 86 | 1010.1 |
| 20260831043208 | 57 | 46 | 9.0 | 14.0 | 0.00 | 0.00 | 0.00 | 86 | 1010.2 |
| 20260831043008 | 57 | 46 | 9.0 | 14.0 | 0.00 | 0.00 | 0.00 | 86 | 1010.1 |
| 20260831042808 | 57 | 45 | 9.0 | 14.0 | 0.00 | 0.00 | 0.00 | 86 | 1010.0 |
| 20260831042607 | 57 | 45 | 9.0 | 16.0 | 0.00 | 0.00 | 0.00 | 86 | 1010.0 |
| 20260831042407 | 57 | 46 | 9.0 | 16.0 | 0.00 | 0.00 | 0.00 | 86 | 1010.0 |
| 20260831042208 | 57 | 46 | 9.0 | 16.0 | 0.00 | 0.00 | 0.00 | 86 | 1009.9 |
| 20260831042008 | 57 | 45 | 10.0 | 16.0 | 0.00 | 0.00 | 0.00 | 86 | 1010.0 |
| 20260831041807 | 57 | 45 | 9.0 | 16.0 | 0.00 | 0.00 | 0.00 | 86 | 1009.9 |
| 20260831041608 | 57 | 45 | 9.0 | 15.0 | 0.00 | 0.00 | 0.00 | 86 | 1009.9 |
| 20260831041408 | 57 | 46 | 9.0 | 15.0 | 0.00 | 0.00 | 0.00 | 86 | 1009.8 |
| 20260831041208 | 57 | 46 | 9.0 | 17.0 | 0.00 | 0.00 | 0.00 | 86 | 1009.8 |
| 20260831041007 | 57 | 45 | 8.0 | 17.0 | 0.00 | 0.00 | 0.00 | 87 | 1009.8 |
| 20260831040809 | 57 | 46 | 7.0 | 17.0 | 0.00 | 0.00 | 0.00 | 87 | 1009.7 |